Location: Bosdarros
(43.2167°N, 0.3667°W)
Time: 19:43:59
(UTC+00:00)

SPOT 5 - Visible Passes

Search period start: 23 July 2021 00:00
Search period end: 02 August 2021 00:00
Orbit: 622 x 815 km, 98.2° (Epoch: 23 July)

Date Brightness Start Highest point End Pass type
(mag) Time Alt. Az. Time Alt. Az. Time Alt. Az.
23 Jul 3.6 20:58:03 20° ESE 21:00:21 32° ENE 21:04:12 10° N visible
23 Jul 4.3 22:37:17 20° WSW 22:38:30 23° W 22:41:57 10° NW visible
24 Jul 4.8 20:09:25 10° ENE 20:10:33 11° ENE 20:11:41 10° NE visible
24 Jul 2.6 21:46:28 40° S 21:48:00 79° WSW 21:52:21 10° NNW visible
25 Jul 3.6 20:55:38 19° ESE 20:57:51 31° ENE 21:01:40 10° N visible
25 Jul 4.3 22:34:52 22° WSW 22:35:58 24° W 22:39:31 10° NW visible
26 Jul 4.9 20:07:26 10° ENE 20:08:06 10° ENE 20:08:46 10° NE visible
26 Jul 2.5 21:44:03 42° S 21:45:29 84° WSW 21:49:52 10° NNW visible
27 Jul 3.7 20:53:13 19° ESE 20:55:22 29° ENE 20:59:08 10° N visible
27 Jul 4.2 22:32:27 23° WSW 22:33:27 25° W 22:37:05 10° NW visible
28 Jul 2.5 21:41:38 44° SSE 21:42:59 89° WSW 21:47:22 10° NNW visible
29 Jul 3.8 20:50:48 19° ESE 20:52:53 28° ENE 20:56:36 10° N visible
29 Jul 4.1 22:30:02 25° WSW 22:30:56 27° W 22:34:40 10° NW visible
30 Jul 2.5 21:39:13 46° SSE 21:40:29 86° ENE 21:44:54 10° NNW visible
31 Jul 3.9 20:48:23 19° ESE 20:50:24 26° ENE 20:54:04 10° N visible
31 Jul 4.0 22:27:38 27° WSW 22:28:25 29° W 22:32:15 10° NW visible
01 Aug 2.5 21:36:48 48° SSE 21:37:58 82° ENE 21:42:25 10° NNW visible
